Moses Lake, WA

11:27 PM PDT on September 23, 2017 (GMT -0700)
Grant County International

Weather History for KMWH - July, 2013

Change the Weather History Date:

Monday, July 15, 2013

  Actual Average Record
Temperature  
Mean Temperature 75 °F 73 °F  
Max Temperature 89 °F 89 °F 102 °F (1996)
Min Temperature 60 °F 56 °F 37 °F (1986)
Degree Days  
Heating Degree Days 0 0  
Month to date heating degree days 0 6  
Since 1 June heating degree days 49 61  
Since 1 July heating degree days 0 6  
Cooling Degree Days 10 8  
Month to date cooling degree days 166 101  
Year to date cooling degree days 324 211  
Since 1 June cooling degree days 274 186  
Growing Degree Days 26 (Base 50)    
Moisture  
Dew Point 36 °F    
Average Humidity 28    
Maximum Humidity 43    
Minimum Humidity 12    
Precipitation  
Precipitation 0.00 in 0.00 in 0.06 in (1982)
Month to date precipitation 0.00 0.21  
Year to date precipitation 3.75 4.98  
Sea Level Pressure  
Sea Level Pressure 29.93 in    
Wind  
Wind Speed 13 mph (North)    
Max Wind Speed 23 mph    
Max Gust Speed 29 mph    
Visibility 10 miles    
Events      
T = Trace of Precipitation, MM = Missing Value Source: NWS Daily Summary

Daily Weather History Graph

Daily Weather History Graph

Search for Another Location

Airport or City:

Trip Planner

Search our weather history database for the weather conditions in past years. The results will help you decide how hot, cold, wet, or windy it might be!

Date:

Astronomy

Jul. 15, 2013 Rise Set
Actual Time 5:16 AM PDT 8:49 PM PDT
Civil Twilight 4:38 AM PDT 9:27 PM PDT
Nautical Twilight 3:47 AM PDT 10:17 PM PDT
Astronomical Twilight 2:39 AM PDT 11:25 PM PDT
Moon 1:16 PM PDT (7/15) No Moon Set
Length of Visible Light 16h 48m
Length of Day
15h 32m
Waxing Crescent, 46% of the Moon is Illuminated
Jul 15
Waxing Crescent
Jul 15
First Quarter
Jul 22
Full
Jul 29
Last Quarter
Aug 6
New

Hourly Weather History & Observations

Time (PDT) Temp. Dew Point Humidity Pressure Visibility Wind Dir Wind Speed Gust Speed Precip Events Conditions
12:52 AM 69.1 °F 32.0 °F 25% 29.88 in 10.0 mi NNW 5.8 mph - N/A   Clear
1:52 AM 69.1 °F 34.0 °F 27% 29.90 in 10.0 mi WNW 6.9 mph - N/A   Clear
2:52 AM 64.0 °F 35.1 °F 34% 29.90 in 10.0 mi NW 10.4 mph - N/A   Clear
3:52 AM 64.9 °F 36.0 °F 34% 29.91 in 10.0 mi NW 9.2 mph - N/A   Clear
4:52 AM 63.0 °F 37.0 °F 38% 29.93 in 10.0 mi NW 9.2 mph - N/A   Clear
5:52 AM 64.0 °F 37.9 °F 38% 29.95 in 10.0 mi North 11.5 mph - N/A   Clear
6:52 AM 66.9 °F 39.0 °F 36% 29.97 in 10.0 mi North 16.1 mph - N/A   Clear
7:52 AM 70.0 °F 39.0 °F 32% 29.99 in 10.0 mi North 17.3 mph - N/A   Clear
8:52 AM 73.0 °F 37.0 °F 27% 29.99 in 10.0 mi North 20.7 mph 28.8 mph N/A   Clear
9:52 AM 75.0 °F 37.9 °F 26% 29.99 in 10.0 mi North 18.4 mph 25.3 mph N/A   Clear
10:52 AM 78.1 °F 37.0 °F 23% 29.99 in 10.0 mi North 18.4 mph 26.5 mph N/A   Clear
11:52 AM 81.0 °F 34.0 °F 18% 29.98 in 10.0 mi North 17.3 mph 24.2 mph N/A   Clear
12:52 PM 82.0 °F 32.0 °F 16% 29.96 in 10.0 mi North 9.2 mph 18.4 mph N/A   Clear
1:52 PM 84.9 °F 32.0 °F 15% 29.95 in 10.0 mi NNE 17.3 mph 21.9 mph N/A   Clear
2:52 PM 87.1 °F 30.9 °F 13% 29.93 in 10.0 mi North 11.5 mph 20.7 mph N/A   Clear
3:52 PM 88.0 °F 28.9 °F 12% 29.91 in 10.0 mi North 12.7 mph 19.6 mph N/A   Clear
4:52 PM 89.1 °F 34.0 °F 14% 29.89 in 10.0 mi North 12.7 mph 23.0 mph N/A   Clear
5:52 PM 88.0 °F 33.1 °F 14% 29.88 in 10.0 mi North 13.8 mph - N/A   Clear
6:52 PM 87.1 °F 34.0 °F 15% 29.87 in 10.0 mi North 15.0 mph - N/A   Clear
7:52 PM 84.0 °F 34.0 °F 17% 29.87 in 10.0 mi North 13.8 mph - N/A   Clear
8:52 PM 77.0 °F 37.9 °F 24% 29.89 in 10.0 mi North 10.4 mph - N/A   Clear
9:52 PM 71.1 °F 39.0 °F 31% 29.92 in 10.0 mi North 10.4 mph - N/A   Clear
10:52 PM 69.1 °F 39.9 °F 35% 29.93 in 10.0 mi North 10.4 mph - N/A   Clear
11:52 PM 64.9 °F 41.0 °F 42% 29.94 in 10.0 mi North 9.2 mph - N/A   Clear